North Las Vegas Airport Las Vegas US
ICAO: KVGT
IATA: VGT
Category: Medium
Scheduled Services: No

Elevation: 2205 ft
TransAlt. 18000 ft.

Airport Communications:
LAS VEGAS APP:119.4
NELLIS APP:118.125
ASOS:118.05
ATIS:118.05
CLNC DEL:124
CTAF:125.7
GND:121.7
TWR:125.7
UNICOM:122.95

KVGT Zoom In..

Runways:

(A) RW 07 length 5005 ft width 75 ft
---- / hdg 74

(B) RW 12L length 4203 ft width 75 ft
ILS 110.70 / hdg 120

(C) RW 12R length 5001 ft width 75 ft
---- / hdg 120

(D) RW 25 length 5005 ft width 75 ft
---- / hdg 254

(E) RW 30L length 5001 ft width 75 ft
---- / hdg 300

(F) RW 30R length 4203 ft width 75 ft
---- / hdg 300

Location; KVGT
Day. 21 / Time. 05.53 Zulu
* Altimeter: 29.89
* Temperature: 36° c. 96.8°f.
* Wind from: 000° Speed 00 kn.
Dewpoint: 15° c.
Visibility: 10 Statute Miles.
Clouds: Scattered 12000 ft.

KVGT 210553Z AUTO 00000KT 10SM SCT120 36/15 A2989 RMK AO2 SLP105 T03610150 10394 20344 51009


Wind - Calm.

 
 
jpsmedia.com for Web Design worldairports.se 2018   terms of use